Tracking 19286 objects as of 18-Nov-2018
HD Live streaming from Space Station
objects crossing your sky now

COSMOS 516

Track COSMOS 516 now!
10-day predictions
COSMOS 516 is classified as:


NORAD ID: 6154
Int'l Code: 1972-066A
Perigee: 926.2 km
Apogee: 1,032.4 km
Inclination: 64.8 °
Period: 104.5 minutes
Semi major axis: 7350 km
RCS: 3.1093 m2 (large)
Launch date: August 21, 1972
Source: Commonwealth of Independent States (former USSR) (CIS)
Launch site: TYURATAM MISSILE AND SPACE COMPLEX (TTMTR)
aabbcc
Your satellite tracking list
Your tracking list is empty




NASA's NSSDC Master Catalog

Two Line Element Set (TLE):
1  6154U 72066A   18321.62305457 -.00000076 +00000-0 +12615-4 0  9997
2  6154 064.8085 134.7880 0072275 189.0487 170.9271 13.77672598326519
Source of the keplerian elements: AFSPC